TimeEST,TemperatureF,Dew PointF,Humidity,Sea Level PressureIn,VisibilityMPH,Wind Direction,Wind SpeedMPH,Gust SpeedMPH,PrecipitationIn,Events,Conditions,WindDirDegrees,DateUTC
12:56 AM,37.0,25.0,62,30.29,10.0,SW,8.1,-,N/A,,Partly Cloudy,220,2013-02-19 05:56:00
1:56 AM,36.0,25.0,64,30.26,10.0,South,6.9,-,N/A,,Partly Cloudy,190,2013-02-19 06:56:00
2:56 AM,36.0,25.0,64,30.23,10.0,SSW,5.8,-,N/A,,Clear,200,2013-02-19 07:56:00
3:56 AM,36.0,27.0,70,30.22,10.0,SSW,9.2,-,N/A,,Clear,200,2013-02-19 08:56:00
4:56 AM,36.0,28.0,73,30.20,10.0,South,5.8,-,N/A,,Partly Cloudy,190,2013-02-19 09:56:00
5:56 AM,39.0,30.9,73,30.17,10.0,South,6.9,-,N/A,,Partly Cloudy,180,2013-02-19 10:56:00
6:56 AM,39.9,32.0,73,30.15,10.0,SSE,8.1,-,N/A,,Scattered Clouds,160,2013-02-19 11:56:00
7:56 AM,46.0,32.0,58,30.14,10.0,South,9.2,-,N/A,,Mostly Cloudy,190,2013-02-19 12:56:00
8:56 AM,52.0,32.0,47,30.12,10.0,South,9.2,-,N/A,,Scattered Clouds,180,2013-02-19 13:56:00
9:56 AM,55.9,41.5,58,30.09,10.0,South,11.5,-,N/A,,Mostly Cloudy,190,2013-02-19 14:56:00
10:56 AM,57.9,42.1,56,30.06,10.0,South,13.8,20.7,N/A,,Mostly Cloudy,190,2013-02-19 15:56:00
11:56 AM,59.0,44.1,58,30.02,10.0,South,11.5,18.4,N/A,,Overcast,190,2013-02-19 16:56:00
12:56 PM,59.0,45.0,60,29.96,10.0,SSW,15.0,-,0.00,Rain,Light Rain,200,2013-02-19 17:56:00
1:16 PM,59.0,46.4,63,29.93,10.0,South,9.2,20.7,0.00,,Overcast,190,2013-02-19 18:16:00
1:56 PM,61.0,46.9,60,29.92,10.0,SSW,15.0,23.0,0.00,,Overcast,200,2013-02-19 18:56:00
2:04 PM,60.8,48.2,63,29.91,10.0,SSW,12.7,25.3,0.00,Rain,Light Rain,210,2013-02-19 19:04:00
2:56 PM,57.9,51.1,78,29.87,10.0,SSW,15.0,-,0.01,,Overcast,200,2013-02-19 19:56:00
3:04 PM,57.2,51.8,82,29.86,10.0,SSW,12.7,21.9,0.00,Rain,Light Rain,200,2013-02-19 20:04:00
3:56 PM,57.9,51.1,78,29.84,10.0,SSW,15.0,25.3,0.00,,Overcast,200,2013-02-19 20:56:00
4:56 PM,57.9,51.1,78,29.82,10.0,SSW,12.7,24.2,N/A,,Overcast,210,2013-02-19 21:56:00
5:56 PM,57.9,48.9,72,29.81,10.0,SW,17.3,28.8,N/A,,Overcast,220,2013-02-19 22:56:00
7:23 PM,55.4,48.2,77,29.81,9.0,SW,20.7,-,0.00,Rain,Light Rain,230,2013-02-20 00:23:00
7:49 PM,53.6,50.0,88,29.82,10.0,WSW,18.4,28.8,0.01,Rain,Light Rain,240,2013-02-20 00:49:00
7:56 PM,54.0,50.0,86,29.83,10.0,WSW,16.1,25.3,0.01,Rain,Light Rain,240,2013-02-20 00:56:00
8:09 PM,53.6,48.2,82,29.83,3.0,West,23.0,32.2,0.01,Rain,Light Rain,260,2013-02-20 01:09:00
8:30 PM,53.6,48.2,82,29.83,10.0,West,17.3,24.2,0.01,,Mostly Cloudy,260,2013-02-20 01:30:00
8:56 PM,51.1,46.0,83,29.85,10.0,West,12.7,-,0.01,,Scattered Clouds,260,2013-02-20 01:56:00
9:56 PM,50.0,43.0,77,29.87,10.0,West,12.7,21.9,N/A,,Scattered Clouds,270,2013-02-20 02:56:00
10:56 PM,48.0,41.0,77,29.88,10.0,West,11.5,-,N/A,,Clear,260,2013-02-20 03:56:00
11:56 PM,46.9,37.9,71,29.88,10.0,West,12.7,-,N/A,,Clear,270,2013-02-20 04:56:00